Flag for Thailand Weather past 2 weeks in Hat Yai, Thailand

Now
82 °F

Partly sunny.


Feels Like: 89 °F
Forecast: 74 / 93 °F
Wind: 6 mph from Southwest

Location: Hat Yai Airport

Current Time: Jul 23, 2014 at 8:49:51 AM

Latest Report: Jul 23, 2014 at 8:00 AM


Visibility: N/A

Pressure: 29.83 "Hg

Humidity: 79%

Dew point: 75 °F

Location of Hat YaiLocation

Historic Weather in Hat Yai — Graph

°F

Hat Yai temperature yesterday

Maximum temperature yesterday: 91 °F (at 12:30 PM)
Minimum temperature yesterday: 77 °F (at 12:30 AM)
Average temperature yesterday: 84 °F

Past Weeks' High & Low Weather Summary

 TemperatureHumidityPressure
High93 °F (Jul 8, 12:00 PM)100% (Jul 9, 6:00 AM)29.86 "Hg (Jul 9, 6:00 AM)
Low72 °F (Jul 14, 6:00 AM)49% (Jul 18, 3:30 PM)29.68 "Hg (Jul 8, 2:00 PM)
Average83 °F79%29.78 "Hg
* Reported Jul 8 7:00 AM — Jul 23 7:00 AM, Hat Yai, Weather by CustomWeather, © 2014

Note: Actual official high and low records may vary slightly from our data, if they occured in-between our weather recording intervals... More about our weather records

Advertising

Hat Yai weather history for previous 24 hours

 ConditionsComfort  
Time TempWeatherWind HumidityBarometerVisibility
7:00 AM
Jul 23
79 °FMostly cloudy.5 mph89%29.80 "HgN/A
12:00 AM77 °FMostly cloudy.No wind94%29.83 "HgN/A
11:30 PM
Jul 22
79 °FMostly cloudy.No wind89%29.83 "HgN/A
11:00 PM79 °FMostly cloudy.2 mph89%29.83 "HgN/A
10:30 PM81 °FMostly cloudy.2 mph84%29.83 "HgN/A
10:00 PM81 °FMostly cloudy.2 mph84%29.83 "HgN/A
9:30 PM82 °FMostly cloudy.No wind79%29.83 "HgN/A
9:00 PM84 °FMostly cloudy.5 mph74%29.83 "HgN/A
8:30 PM82 °FMostly cloudy.3 mph79%29.83 "HgN/A
8:00 PM82 °FMostly cloudy.3 mph79%29.80 "HgN/A
7:30 PM84 °FMostly cloudy.5 mph74%29.77 "HgN/A
7:00 PM84 °FMostly cloudy.6 mph70%29.77 "HgN/A
6:30 PM86 °FMostly cloudy.5 mph66%29.77 "HgN/A
6:00 PM86 °FMostly cloudy.6 mph66%29.77 "HgN/A
5:30 PM86 °FMostly cloudy.5 mph66%29.74 "HgN/A
5:00 PM88 °FMostly cloudy.7 mph62%29.74 "HgN/A
4:30 PM88 °FMostly cloudy.9 mph62%29.74 "HgN/A
4:00 PM88 °FMostly cloudy.10 mph62%29.74 "HgN/A
3:30 PM90 °FMostly cloudy.9 mph55%29.74 "HgN/A
3:00 PM91 °FMostly cloudy.10 mph52%29.74 "HgN/A
2:30 PM90 °FBroken clouds.16 mph55%29.74 "HgN/A
2:00 PM91 °FBroken clouds.13 mph59%29.77 "HgN/A
1:30 PM91 °FBroken clouds.12 mph56%29.77 "HgN/A
1:00 PM90 °FPartly sunny.14 mph59%29.77 "HgN/A
12:30 PM91 °FPartly sunny.17 mph56%29.77 "HgN/A
12:00 PM90 °FPartly sunny.10 mph63%29.80 "HgN/A
11:30 AM88 °FBroken clouds.10 mph66%29.80 "HgN/A
11:00 AM88 °FBroken clouds.10 mph66%29.83 "HgN/A
10:30 AM88 °FPartly sunny.14 mph66%29.83 "HgN/A
10:00 AM86 °FPartly sunny.9 mph70%29.83 "HgN/A
9:30 AM86 °FPartly sunny.5 mph75%29.83 "Hg6 mi
9:00 AM84 °FPartly sunny.3 mph79%29.83 "Hg6 mi
8:30 AM82 °FPartly sunny.6 mph84%29.83 "Hg4 mi
8:00 AM81 °FFog.5 mph89%29.83 "Hg3 mi
Weather by CustomWeather, © 2014

See weather overviewHow to use our weather pages